PAC506 KSAN-MDPC

Flight info

Callsign PAC506
Flight time N/A
Altitude 37000
Route ZZOOO4 MTBAL DCT NICKT DCT VERNO DCT YONIC DCT VERRT DCT PRTZY DCT CRIED J50 VELCO DCT RQR DCT ZEMAN DCT DOZES DCT UCRAZ Y290 BITAC Y396 MALVN UL343 PTA UW28 PETRI W28 BEREL BEREL1W
Aircraft B77L/H-SDE1E2E3FGHIJ2J3J4J5M1RWXY/LB1D1

Departure

Time N/A
Airport San Diego International Airport (KSAN)

Arrival

Time 2026-04-30 03:47
Airport Punta Cana International Airport (MDPC)
Time Latitude Longitude Altitude Speed Heading
2026-04-30 02:02 25.81164 -79.99313 39071 ft 512 kts 118°
2026-04-30 02:03 25.79311 -79.95933 39087 ft 512 kts 118°
2026-04-30 02:03 25.75607 -79.89185 39067 ft 512 kts 119°
2026-04-30 02:04 25.71902 -79.82442 39070 ft 512 kts 119°
2026-04-30 02:04 25.68197 -79.75708 39076 ft 512 kts 119°
2026-04-30 02:05 25.64884 -79.68761 39077 ft 508 kts 110°
2026-04-30 02:05 25.62721 -79.61355 39081 ft 503 kts 100°
2026-04-30 02:06 25.61153 -79.53858 39083 ft 503 kts 99°
2026-04-30 02:06 25.59552 -79.46314 39076 ft 503 kts 100°
2026-04-30 02:07 25.58171 -79.39998 39092 ft 504 kts 101°
2026-04-30 02:07 25.56512 -79.32458 39078 ft 504 kts 101°
2026-04-30 02:08 25.54389 -79.25042 39068 ft 508 kts 111°
2026-04-30 02:08 25.51249 -79.18019 39080 ft 510 kts 115°
2026-04-30 02:09 25.47995 -79.11031 39078 ft 511 kts 115°
2026-04-30 02:09 25.44785 -79.04060 39081 ft 512 kts 115°
2026-04-30 02:10 25.41573 -78.97024 39077 ft 513 kts 115°
2026-04-30 02:10 25.38358 -78.89973 39077 ft 514 kts 115°
2026-04-30 02:11 25.35138 -78.82925 39074 ft 514 kts 115°
2026-04-30 02:11 25.31911 -78.75879 39068 ft 514 kts 115°
2026-04-30 02:12 25.28682 -78.68841 39070 ft 513 kts 115°
2026-04-30 02:12 25.25446 -78.61799 39070 ft 514 kts 115°
2026-04-30 02:13 25.22210 -78.54764 39071 ft 514 kts 115°
2026-04-30 02:13 25.18966 -78.47726 39068 ft 514 kts 115°
2026-04-30 02:14 25.15721 -78.40694 39065 ft 514 kts 116°
2026-04-30 02:14 25.12490 -78.33707 39069 ft 514 kts 116°
2026-04-30 02:15 25.09235 -78.26677 39069 ft 515 kts 116°
2026-04-30 02:15 25.05972 -78.19641 39065 ft 515 kts 116°
2026-04-30 02:16 25.02706 -78.12609 39062 ft 515 kts 116°
2026-04-30 02:16 24.99436 -78.05578 39062 ft 515 kts 116°
2026-04-30 02:17 24.96161 -77.98548 39063 ft 515 kts 116°
2026-04-30 02:17 24.92882 -77.91520 39063 ft 516 kts 116°
2026-04-30 02:18 24.89596 -77.84489 39062 ft 516 kts 116°
2026-04-30 02:18 24.86306 -77.77458 39085 ft 516 kts 116°
2026-04-30 02:19 24.83011 -77.70429 39087 ft 517 kts 116°
2026-04-30 02:19 24.79715 -77.63404 39072 ft 516 kts 117°
2026-04-30 02:20 24.76418 -77.56392 39082 ft 516 kts 117°
2026-04-30 02:20 24.72628 -77.49713 39083 ft 515 kts 127°
2026-04-30 02:21 24.68361 -77.43385 39074 ft 515 kts 127°
2026-04-30 02:21 24.64087 -77.37075 39070 ft 515 kts 127°
2026-04-30 02:22 24.59836 -77.30735 39070 ft 515 kts 127°
2026-04-30 02:22 24.55599 -77.24383 39072 ft 515 kts 127°
2026-04-30 02:23 24.51387 -77.18072 39075 ft 515 kts 127°
2026-04-30 02:23 24.47146 -77.11730 39068 ft 515 kts 127°
2026-04-30 02:24 24.42904 -77.05397 39056 ft 514 kts 128°
2026-04-30 02:24 24.38674 -76.99092 39056 ft 512 kts 128°
2026-04-30 02:25 24.34455 -76.92810 39061 ft 511 kts 128°
2026-04-30 02:25 24.30248 -76.86555 39082 ft 509 kts 128°
2026-04-30 02:26 24.26037 -76.80301 39083 ft 509 kts 128°
2026-04-30 02:26 24.21826 -76.74056 39063 ft 510 kts 128°
2026-04-30 02:27 24.17605 -76.67804 39076 ft 511 kts 128°
2026-04-30 02:27 24.13377 -76.61549 39081 ft 511 kts 128°
2026-04-30 02:28 24.09138 -76.55286 39082 ft 512 kts 128°
2026-04-30 02:28 24.04893 -76.49021 39068 ft 513 kts 128°
2026-04-30 02:29 24.00637 -76.42748 39074 ft 514 kts 129°
2026-04-30 02:29 23.96373 -76.36471 39068 ft 515 kts 129°
2026-04-30 02:30 23.92099 -76.30189 39070 ft 515 kts 129°
2026-04-30 02:30 23.87822 -76.23909 39071 ft 515 kts 129°
2026-04-30 02:31 23.83564 -76.17665 39062 ft 516 kts 129°
2026-04-30 02:31 23.79279 -76.11389 39075 ft 515 kts 129°
2026-04-30 02:32 23.74989 -76.05114 39067 ft 515 kts 129°
2026-04-30 02:32 23.70704 -75.98851 39055 ft 514 kts 130°
2026-04-30 02:33 23.66422 -75.92603 39053 ft 514 kts 130°
2026-04-30 02:33 23.62140 -75.86364 39054 ft 513 kts 130°
2026-04-30 02:34 23.57859 -75.80133 39066 ft 513 kts 130°
2026-04-30 02:34 23.53578 -75.73909 39057 ft 513 kts 130°
2026-04-30 02:35 23.49297 -75.67693 39057 ft 512 kts 130°
2026-04-30 02:35 23.45020 -75.61491 39051 ft 512 kts 130°
2026-04-30 02:36 23.40739 -75.55291 39054 ft 512 kts 130°
2026-04-30 02:36 23.36457 -75.49095 39058 ft 512 kts 131°
2026-04-30 02:37 23.32174 -75.42907 39057 ft 512 kts 131°
2026-04-30 02:37 23.27888 -75.36720 39057 ft 512 kts 131°
2026-04-30 02:38 23.23627 -75.30579 39053 ft 512 kts 131°
2026-04-30 02:38 23.19334 -75.24398 39056 ft 512 kts 131°
2026-04-30 02:39 23.15042 -75.18224 39052 ft 512 kts 131°
2026-04-30 02:39 23.10750 -75.12058 39053 ft 512 kts 131°
2026-04-30 02:40 23.06453 -75.05895 39058 ft 512 kts 131°
2026-04-30 02:40 23.02152 -74.99739 39029 ft 511 kts 131°
2026-04-30 02:41 22.97865 -74.93607 39039 ft 509 kts 131°
2026-04-30 02:41 22.93593 -74.87502 39043 ft 507 kts 131°
2026-04-30 02:42 22.89326 -74.81412 39043 ft 506 kts 131°
2026-04-30 02:42 22.85071 -74.75346 39045 ft 505 kts 131°
2026-04-30 02:43 22.80817 -74.69288 39044 ft 505 kts 132°
2026-04-30 02:43 22.76587 -74.63273 39040 ft 505 kts 132°
2026-04-30 02:44 22.72326 -74.57220 39042 ft 505 kts 132°
2026-04-30 02:44 22.68056 -74.51160 39041 ft 506 kts 132°
2026-04-30 02:45 22.63782 -74.45103 39034 ft 506 kts 131°
2026-04-30 02:45 22.59511 -74.39054 39044 ft 506 kts 132°
2026-04-30 02:46 22.55236 -74.33009 39036 ft 506 kts 132°
2026-04-30 02:46 22.50962 -74.26971 39036 ft 505 kts 132°
2026-04-30 02:47 22.46688 -74.20941 39038 ft 505 kts 132°
2026-04-30 02:47 22.42412 -74.14915 39035 ft 505 kts 132°
2026-04-30 02:48 22.38140 -74.08902 39035 ft 504 kts 132°
2026-04-30 02:48 22.33867 -74.02893 39035 ft 504 kts 132°
2026-04-30 02:49 22.29592 -73.96889 39016 ft 504 kts 132°
2026-04-30 02:49 22.25320 -73.90896 39026 ft 503 kts 132°
2026-04-30 02:50 22.21051 -73.84912 39033 ft 503 kts 132°
2026-04-30 02:50 22.16781 -73.78935 39028 ft 503 kts 132°
2026-04-30 02:51 22.12510 -73.72964 39034 ft 503 kts 132°
2026-04-30 02:51 22.08240 -73.67000 39031 ft 503 kts 132°
2026-04-30 02:52 22.03963 -73.61033 39031 ft 503 kts 133°
2026-04-30 02:52 21.99681 -73.55066 39026 ft 503 kts 133°
2026-04-30 02:53 21.95394 -73.49098 39025 ft 504 kts 133°
2026-04-30 02:53 21.91102 -73.43131 39008 ft 504 kts 133°
2026-04-30 02:54 21.87528 -73.38165 39022 ft 505 kts 133°
2026-04-30 02:54 21.83224 -73.32194 39022 ft 505 kts 133°
2026-04-30 02:55 21.78908 -73.26211 39030 ft 506 kts 133°
2026-04-30 02:55 21.74583 -73.20222 39016 ft 507 kts 133°
2026-04-30 02:56 21.70248 -73.14226 39025 ft 508 kts 133°
2026-04-30 02:56 21.65908 -73.08230 39026 ft 508 kts 133°
2026-04-30 02:57 21.61568 -73.02240 39009 ft 508 kts 133°
2026-04-30 02:57 21.57227 -72.96255 39024 ft 508 kts 133°
2026-04-30 02:58 21.52887 -72.90277 39017 ft 507 kts 133°
2026-04-30 02:58 21.48578 -72.84350 39013 ft 507 kts 133°
2026-04-30 02:59 21.44238 -72.78387 39014 ft 507 kts 133°
2026-04-30 02:59 21.39897 -72.72429 39013 ft 507 kts 133°
2026-04-30 03:00 21.35552 -72.66472 39013 ft 507 kts 133°
2026-04-30 03:00 21.31210 -72.60524 39014 ft 507 kts 133°
2026-04-30 03:01 21.26865 -72.54579 39014 ft 506 kts 133°
2026-04-30 03:01 21.22519 -72.48639 39011 ft 506 kts 133°
2026-04-30 03:02 21.18170 -72.42703 38995 ft 506 kts 133°
2026-04-30 03:02 21.13825 -72.36777 39006 ft 506 kts 133°
2026-04-30 03:03 21.09474 -72.30849 39006 ft 505 kts 133°
2026-04-30 03:03 21.02986 -72.22022 39002 ft 505 kts 133°
2026-04-30 03:04 20.98639 -72.16114 39006 ft 505 kts 133°
2026-04-30 03:04 20.94291 -72.10213 39002 ft 505 kts 133°
2026-04-30 03:05 20.89938 -72.04310 39000 ft 505 kts 134°
2026-04-30 03:05 20.85585 -71.98414 39000 ft 505 kts 134°
2026-04-30 03:06 20.81235 -71.92528 38994 ft 505 kts 134°
2026-04-30 03:06 20.76877 -71.86636 38999 ft 505 kts 134°
2026-04-30 03:07 20.72520 -71.80752 38999 ft 504 kts 134°
2026-04-30 03:07 20.68165 -71.74878 38998 ft 504 kts 134°
2026-04-30 03:08 20.63807 -71.69005 38997 ft 505 kts 134°
2026-04-30 03:08 20.59447 -71.63136 38999 ft 505 kts 134°
2026-04-30 03:09 20.55112 -71.57306 38997 ft 505 kts 134°
2026-04-30 03:09 20.50721 -71.51405 38999 ft 505 kts 134°
2026-04-30 03:10 20.46379 -71.45577 38990 ft 505 kts 134°
2026-04-30 03:10 20.42002 -71.39707 38994 ft 505 kts 134°
2026-04-30 03:11 20.37541 -71.33948 38994 ft 503 kts 136°
2026-04-30 03:11 20.32989 -71.28289 38986 ft 503 kts 136°
2026-04-30 03:12 20.28443 -71.22628 38986 ft 503 kts 136°
2026-04-30 03:12 20.23911 -71.16951 38986 ft 503 kts 136°
2026-04-30 03:13 20.19386 -71.11271 38983 ft 503 kts 136°
2026-04-30 03:13 20.14875 -71.05614 38947 ft 496 kts 136°
2026-04-30 03:14 20.12656 -71.02829 38773 ft 490 kts 136°
2026-04-30 03:14 20.10460 -71.00077 38409 ft 487 kts 136°
2026-04-30 03:14 20.08266 -70.97334 37936 ft 487 kts 137°
2026-04-30 03:14 20.06067 -70.94588 37452 ft 487 kts 137°
2026-04-30 03:15 20.03878 -70.91854 37040 ft 485 kts 137°
2026-04-30 03:15 20.01695 -70.89128 36687 ft 482 kts 137°
2026-04-30 03:15 19.99526 -70.86419 36337 ft 480 kts 137°
2026-04-30 03:15 19.97366 -70.83723 35979 ft 478 kts 137°
2026-04-30 03:16 19.95213 -70.81037 35615 ft 476 kts 138°
2026-04-30 03:16 19.93069 -70.78364 35272 ft 474 kts 138°
2026-04-30 03:16 19.90959 -70.75734 34945 ft 472 kts 138°
2026-04-30 03:16 19.88831 -70.73084 34616 ft 471 kts 138°
2026-04-30 03:17 19.86712 -70.70445 34293 ft 469 kts 139°
2026-04-30 03:17 19.84598 -70.67814 33969 ft 467 kts 139°
2026-04-30 03:17 19.82490 -70.65192 33617 ft 465 kts 139°
2026-04-30 03:17 19.80398 -70.62589 33301 ft 462 kts 139°
2026-04-30 03:18 19.78321 -70.60008 32998 ft 459 kts 139°
2026-04-30 03:18 19.76275 -70.57418 32703 ft 458 kts 136°
2026-04-30 03:18 19.74422 -70.54648 32391 ft 462 kts 129°
2026-04-30 03:18 19.72725 -70.51759 32075 ft 460 kts 128°
2026-04-30 03:19 19.71058 -70.48866 31784 ft 458 kts 128°
2026-04-30 03:19 19.69406 -70.45987 31517 ft 454 kts 128°
2026-04-30 03:19 19.67763 -70.43137 31283 ft 450 kts 128°
2026-04-30 03:19 19.66129 -70.40322 31015 ft 447 kts 128°
2026-04-30 03:20 19.64492 -70.37518 30711 ft 446 kts 128°
2026-04-30 03:20 19.62859 -70.34732 30423 ft 444 kts 128°
2026-04-30 03:20 19.61230 -70.31960 30140 ft 442 kts 128°
2026-04-30 03:20 19.59611 -70.29202 29873 ft 439 kts 128°
2026-04-30 03:21 19.58000 -70.26461 29625 ft 436 kts 128°
2026-04-30 03:21 19.56402 -70.23743 29353 ft 433 kts 128°
2026-04-30 03:21 19.54810 -70.21036 29039 ft 431 kts 128°
2026-04-30 03:21 19.53226 -70.18344 28725 ft 429 kts 128°
2026-04-30 03:22 19.51648 -70.15664 28420 ft 427 kts 128°
2026-04-30 03:22 19.50082 -70.13004 28121 ft 424 kts 127°
2026-04-30 03:22 19.48524 -70.10359 27847 ft 421 kts 128°
2026-04-30 03:22 19.46978 -70.07734 27594 ft 418 kts 127°
2026-04-30 03:23 19.45441 -70.05127 27311 ft 415 kts 127°
2026-04-30 03:23 19.43914 -70.02539 27032 ft 413 kts 127°
2026-04-30 03:23 19.42395 -69.99964 26763 ft 411 kts 127°
2026-04-30 03:23 19.40903 -69.97436 26508 ft 409 kts 127°
2026-04-30 03:24 19.39402 -69.94895 26261 ft 406 kts 127°
2026-04-30 03:24 19.37906 -69.92363 26011 ft 403 kts 127°
2026-04-30 03:24 19.36430 -69.89865 25754 ft 398 kts 127°
2026-04-30 03:24 19.34968 -69.87390 25407 ft 395 kts 127°
2026-04-30 03:25 19.33512 -69.84930 25051 ft 393 kts 127°
2026-04-30 03:25 19.32065 -69.82485 24686 ft 391 kts 127°
2026-04-30 03:25 19.30624 -69.80051 24294 ft 390 kts 127°
2026-04-30 03:25 19.29186 -69.77622 23928 ft 388 kts 126°
2026-04-30 03:26 19.27918 -69.75098 23527 ft 391 kts 116°
2026-04-30 03:26 19.27060 -69.72365 23127 ft 392 kts 107°
2026-04-30 03:26 19.26572 -69.69533 22736 ft 387 kts 102°
2026-04-30 03:26 19.25792 -69.66866 22262 ft 376 kts 123°
2026-04-30 03:27 19.24331 -69.64635 21897 ft 365 kts 130°
2026-04-30 03:27 19.22874 -69.62434 21505 ft 365 kts 127°
2026-04-30 03:27 19.21505 -69.60172 21149 ft 364 kts 125°
2026-04-30 03:27 19.20196 -69.57884 20809 ft 362 kts 124°
2026-04-30 03:28 19.18928 -69.55596 20454 ft 360 kts 123°
2026-04-30 03:28 19.17682 -69.53311 20101 ft 357 kts 123°
2026-04-30 03:28 19.16451 -69.51036 19702 ft 356 kts 123°
2026-04-30 03:28 19.15223 -69.48763 19306 ft 355 kts 123°
2026-04-30 03:29 19.14004 -69.46506 18940 ft 352 kts 123°
2026-04-30 03:29 19.12797 -69.44270 18596 ft 349 kts 122°
2026-04-30 03:29 19.11595 -69.42046 18231 ft 347 kts 122°
2026-04-30 03:29 19.10400 -69.39837 17812 ft 344 kts 122°
2026-04-30 03:30 19.09215 -69.37647 17398 ft 342 kts 122°
2026-04-30 03:30 19.08037 -69.35470 16956 ft 340 kts 122°
2026-04-30 03:30 19.06866 -69.33308 16557 ft 338 kts 122°
2026-04-30 03:30 19.05704 -69.31164 16155 ft 336 kts 122°
2026-04-30 03:31 19.04545 -69.29025 15720 ft 335 kts 122°
2026-04-30 03:31 19.03390 -69.26894 15359 ft 332 kts 122°
2026-04-30 03:31 19.02248 -69.24788 15025 ft 329 kts 121°
2026-04-30 03:31 19.01130 -69.22726 14687 ft 325 kts 121°
2026-04-30 03:32 19.00009 -69.20660 14344 ft 322 kts 121°
2026-04-30 03:32 18.98899 -69.18614 14016 ft 319 kts 121°
2026-04-30 03:32 18.97798 -69.16588 13676 ft 317 kts 121°
2026-04-30 03:32 18.96715 -69.14577 13313 ft 313 kts 120°
2026-04-30 03:33 18.95703 -69.12554 12957 ft 309 kts 118°
2026-04-30 03:33 18.94726 -69.10548 12551 ft 307 kts 118°
2026-04-30 03:33 18.93745 -69.08533 12058 ft 309 kts 118°
2026-04-30 03:33 18.92754 -69.06509 11584 ft 311 kts 118°
2026-04-30 03:34 18.91761 -69.04489 11192 ft 309 kts 118°
2026-04-30 03:34 18.90768 -69.02481 10817 ft 306 kts 118°
2026-04-30 03:34 18.89787 -69.00496 10454 ft 304 kts 118°
2026-04-30 03:34 18.88810 -68.98525 10065 ft 302 kts 120°
2026-04-30 03:35 18.87788 -68.96591 9652 ft 298 kts 121°
2026-04-30 03:35 18.86785 -68.94735 9182 ft 285 kts 121°
2026-04-30 03:35 18.85818 -68.92942 8621 ft 278 kts 120°
2026-04-30 03:35 18.84872 -68.91177 7975 ft 275 kts 120°
2026-04-30 03:36 18.83940 -68.89435 7362 ft 270 kts 120°
2026-04-30 03:36 18.83022 -68.87720 6760 ft 266 kts 120°
2026-04-30 03:36 18.82030 -68.86104 6161 ft 260 kts 127°
2026-04-30 03:36 18.80916 -68.84626 5653 ft 256 kts 129°
2026-04-30 03:37 18.79775 -68.83175 5105 ft 257 kts 129°
2026-04-30 03:37 18.78655 -68.81737 4891 ft 248 kts 128°
2026-04-30 03:37 18.77612 -68.80353 4850 ft 236 kts 128°
2026-04-30 03:37 18.76607 -68.79024 4744 ft 225 kts 128°
2026-04-30 03:38 18.75658 -68.77768 4527 ft 215 kts 128°
2026-04-30 03:38 18.74755 -68.76578 4292 ft 208 kts 127°
2026-04-30 03:38 18.73852 -68.75393 4091 ft 205 kts 128°
2026-04-30 03:38 18.72983 -68.74222 4042 ft 203 kts 128°
2026-04-30 03:39 18.72105 -68.73059 3937 ft 203 kts 128°
2026-04-30 03:39 18.71138 -68.71923 3868 ft 215 kts 135°
2026-04-30 03:39 18.70183 -68.70700 3954 ft 219 kts 123°
2026-04-30 03:39 18.69338 -68.69389 3938 ft 216 kts 126°
2026-04-30 03:40 18.68361 -68.68177 3949 ft 218 kts 137°
2026-04-30 03:40 18.67172 -68.67164 3908 ft 224 kts 142°
2026-04-30 03:40 18.65917 -68.66170 3761 ft 227 kts 142°
2026-04-30 03:40 18.64654 -68.65170 3584 ft 225 kts 142°
2026-04-30 03:41 18.63425 -68.64192 3406 ft 217 kts 141°
2026-04-30 03:41 18.62245 -68.63242 3216 ft 211 kts 140°
2026-04-30 03:41 18.61101 -68.62315 3056 ft 204 kts 141°
2026-04-30 03:41 18.59981 -68.61403 3014 ft 204 kts 140°
2026-04-30 03:42 18.59237 -68.60795 2992 ft 205 kts 141°
2026-04-30 03:42 18.58092 -68.59860 2951 ft 209 kts 141°
2026-04-30 03:42 18.56948 -68.58925 2961 ft 209 kts 141°
2026-04-30 03:42 18.55800 -68.57986 2966 ft 209 kts 140°
2026-04-30 03:43 18.54652 -68.57044 2972 ft 209 kts 141°
2026-04-30 03:43 18.53522 -68.56108 2863 ft 203 kts 137°
2026-04-30 03:43 18.52777 -68.54911 2621 ft 195 kts 101°
2026-04-30 03:43 18.52832 -68.53532 2377 ft 187 kts 77°
2026-04-30 03:44 18.53191 -68.52165 2236 ft 197 kts 74°
2026-04-30 03:44 18.53580 -68.50783 2054 ft 195 kts 74°
2026-04-30 03:44 18.53960 -68.49441 1871 ft 185 kts 74°
2026-04-30 03:44 18.54313 -68.48201 1751 ft 170 kts 74°
2026-04-30 03:45 18.54657 -68.46986 1709 ft 174 kts 75°
2026-04-30 03:45 18.54992 -68.45782 1661 ft 164 kts 75°
2026-04-30 03:45 18.55291 -68.44689 1629 ft 149 kts 75°
2026-04-30 03:45 18.55577 -68.43637 1312 ft 145 kts 74°
2026-04-30 03:46 18.55842 -68.42671 1040 ft 133 kts 75°
2026-04-30 03:46 18.56096 -68.41709 812 ft 139 kts 74°
2026-04-30 03:46 18.56359 -68.40734 631 ft 137 kts 74°
2026-04-30 03:46 18.56621 -68.39774 374 ft 134 kts 74°
2026-04-30 03:47 18.56885 -68.38832 202 ft 137 kts 75°
2026-04-30 03:47 18.57146 -68.37876 61 ft 131 kts 75°
2026-04-30 03:47 18.57373 -68.37051 49 ft 99 kts 73°
2026-04-30 03:47 18.57506 -68.36569 49 ft 41 kts 73°
2026-04-30 03:48 18.57587 -68.36275 48 ft 32 kts 74°
2026-04-30 03:48 18.57602 -68.36107 55 ft 16 kts 92°
2026-04-30 03:48 18.57590 -68.36029 51 ft 8 kts 101°
2026-04-30 03:48 18.57576 -68.35968 51 ft 9 kts 104°
2026-04-30 03:49 18.57549 -68.35903 48 ft 10 kts 121°
2026-04-30 03:49 18.57501 -68.35848 53 ft 11 kts 163°
2026-04-30 03:49 18.57423 -68.35833 48 ft 12 kts 173°
2026-04-30 03:49 18.57339 -68.35831 48 ft 13 kts 177°
2026-04-30 03:50 18.57248 -68.35825 48 ft 14 kts 176°
2026-04-30 03:50 18.57149 -68.35820 48 ft 15 kts 176°
2026-04-30 03:50 18.57045 -68.35813 51 ft 16 kts 176°
2026-04-30 03:50 18.56938 -68.35807 48 ft 16 kts 176°
2026-04-30 03:51 18.56822 -68.35800 49 ft 18 kts 176°
2026-04-30 03:51 18.56713 -68.35789 49 ft 12 kts 174°
2026-04-30 03:51 18.56628 -68.35781 52 ft 12 kts 175°
2026-04-30 03:51 18.56543 -68.35780 50 ft 13 kts 201°
2026-04-30 03:52 18.56508 -68.35860 50 ft 13 kts 265°
2026-04-30 03:52 18.56499 -68.35960 53 ft 14 kts 264°
2026-04-30 03:52 18.56459 -68.36039 53 ft 9 kts 181°
2026-04-30 03:52 18.56413 -68.36023 48 ft 0 kts 172°